STARLINK-11228, 60398

Orbit data source: Space-Track

STARLINK-11228, 60398 is a payload satellite owned by SpaceX/Seattle (US) in LEO that was launched on Sat, 10 Aug 2024 UTC via an FALCON 9 launch vehicle from the Air Force Eastern Test Range (AFETR). Payload-class satellites include a variety of spacecraft equipped with specific instruments for various scientific and technological missions. These include communications satellites like Starlink; space stations such as the ISS; scientific satellites like the Hubble; Earth observation satellites from companies like Planet Labs, Umbra, and HawkEye 360; GPS; miniature CubeSats for education and research; and military/defense satellites.

Loading next visibility...
Identifier
60398, 2024-141A
Orbit
LEO
Last TLE update
15 hours ago
Origin
Manufacturer
SpaceX/Seattle
Mission
Operational Commercial Communications
Bus & Motor
STARLINK V2M, Unknown motor
Mass
730 kg wet, ~700 kg dry
Launch date (UTC)
2024-08-10 (11 months ago)
Launch vehicle
FALCON 9
Launch site
Air Force Eastern Test Range (AFETR)
Object type
Payload
Rocket body
Debris
Shape & HBR
Box + 2 Pan, 29 m
Radar Cross Section
36.964 m², Large (>1 m²)

Expand to show TLE details & history

TLE from 15 hours ago
0 STARLINK-11228
1 60398U 24141A   25186.53140169  .00000229  00000-0  67510-5 0  9996
2 60398  53.1590 224.6799 0001418 139.6105 220.5018 15.69708380 52876
Epoch: 2025-07-05T12:45Z
TLE epoch observation values (Epoch: 2025-07-05T12:45:13.106Z)
Latitude
-0.00003°
Longitude
109.60716°
Altitude
361.373 km
Speed
7.693 km/s
True Right ascension
14h 58m 43s
True Declination
0° 00' 00"
Sunlit
Object was in full shadow at epoch
Visualization orbit readout
Latitude
-2.48389°
Longitude
104.61825°
Altitude
361.779 km
Speed
7.693 km/s
Apparent Right ascension
12h 06m 23s
Apparent Declination
-58° 12' 25"
Sunlit
Object is in full shadow
Visualization observer readout
Local Sidereal Time
15:58:22
Azimuth
208.262° SW
Elevation
-19.343°
Doppler factor
1
Orbital elements
Apogee altitude
360.948 km
Perigee altitude
359.037 km
Semi-major axis
6,738.129 km
Eccentricity
0.00014
Inclination
53.159°
RAAN
224.6799°
Arg. of periapsis
139.6105°
True anomaly
Unknown
Mean anomaly
220.5018°
Eccentric anomaly
Unknown
Mean motion
3.92405 °/min
Orbital period
91.74 mins
BSTAR
0.000006751
Loading maneuver chart data...
Loading SW <> Apogee altitude chart data...
Loading historical data...
Loading historical data...
Loading historical data...
Loading historical data...
Loading historical data...
Loading historical data...
Loading historical data...

STARLINK-11228 Visibility forecast

Observer location: undefined°, undefined°

Span
Click to sort rows by Start time (UTC) header in descending order
Start Az.
Max El. time (UTC)
Max El. Az.
Max El.
End time (UTC)
End Az.
4 mins2025-07-06 12:11:16.158Z304.092° NW2025-07-06 12:13:16.158Z168.777° S42.347°2025-07-06 12:15:16.158Z137.369° SSE
|